Regional Weather Roundup
Issued by NWS

Home | Current Version | Previous Version | Graphics & Text | Print | Product List | Glossary On
Versions: 1 2 3 4 5 6 7 8 9 10 11 12 13 14 15 16 17 18 19 20 21 22 23 24 25 26 27 28 29 30 31 32 33 34 35 36 37 38 39 40 41 42 43 44 45 46 47 48 49 50
000
ASUS43 KDMX 210601
RWRIA

WEATHER ROUNDUP FOR IOWA
NATIONAL WEATHER SERVICE DES MOINES IA
100 AM CDT FRI JUL 21 2017

NOTE: "FAIR" INDICATES FEW OR NO CLOUDS BELOW 12,000 FEET WITH NO
SIGNIFICANT WEATHER AND/OR OBSTRUCTIONS TO VISIBILITY.

* - THESE STATIONS ARE NOT NWS STATIONS...THUS NOT UNDER NWS
QUALITY CONTROL.  THEY ALSO DO NOT REPORT WEATHER SUCH
AS PRECIPITATION OR FOG.

IAZ001>003-012>014-020>022-031>034-043>046-210700-
   NORTHWEST IOWA

CITY           SKY/WX    TMP DP  RH WIND       PRES   REMARKS
CARROLL *      MOCLDY    72  70  94 E3        29.94R
CHEROKEE *     PTCLDY    72  70  93 CALM      29.93R
DENISON *      CLOUDY    73  68  83 NE3       29.93F
ORANGE CITY *  CLOUDY    75  73  94 E5        29.93S
SHELDON *      CLOUDY    75  73  94 E6        29.92S
SIOUX CITY     CLOUDY    74  68  81 SE9       29.89S
6HR MIN TEMP:  73; 6HR MAX TEMP:  82;

SPENCER        CLOUDY    76  73  91 E7        29.95S
6HR MIN TEMP:  75; 6HR MAX TEMP:  83;

STORM LAKE *   CLOUDY    72  68  88 E6        29.95S
$$

IAZ055>058-069>071-079>083-090>094-210700-
   SOUTHWEST IOWA

CITY           SKY/WX    TMP DP  RH WIND       PRES   REMARKS
ATLANTIC *     CLOUDY    79  72  78 CALM      29.92S HX  82
AUDUBON *      MOCLDY    75  70  83 CALM      29.94S
CLARINDA *     CLOUDY    82  77  83 S5        29.93S HX  91
COUNCIL BLFS * CLOUDY    84  77  79 S10       29.90F HX  94
CRESTON *      PTCLDY    79  73  83 E6        29.97R HX  82
HARLAN  *      PTCLDY    75  72  88 CALM      29.95S
LAMONI         MOCLDY    83  78  85 SE5       29.96R HX  93
6HR MIN TEMP:  81; 6HR MAX TEMP:  91;

RED OAK *      CLOUDY    82  75  78 S5        29.91F HX  89
SHENANDOAH *   CLOUDY    82  73  74 SW7G14    29.91S HX  88
$$

IAZ047>049-059>061-072>074-084-210700-
   CENTRAL IOWA

CITY           SKY/WX    TMP DP  RH WIND       PRES   REMARKS
AMES           CLOUDY    71  71 100 SE5       29.96R
6HR MIN TEMP:  70; 6HR MAX TEMP:  88; 6HR PCP:  1.71;

ANKENY *       CLOUDY    73  70  88 CALM      29.95F
BOONE *        CLOUDY    72  70  94 SE7       29.95R
CHARITON *     CLOUDY    81  72  74 SE7       29.96S HX  84
DES MOINES     CLOUDY    76  73  91 NE7       29.93R
6HR MIN TEMP:  76; 6HR MAX TEMP:  95; 6HR PCP:  0.02;

GRINNELL*      CLOUDY    71  69  94 CALM      29.98F
KNOXVILLE *    CLOUDY    77  73  88 E5        29.94S
MARSHALLTOWN   LGT RAIN  71  70  96 SE6       29.96F
6HR MIN TEMP:  70; 6HR MAX TEMP:  87; 6HR PCP:  0.76;

NEWTON *       CLOUDY    72  70  94 SE8       29.96S
PELLA *        LGT RAIN  73  71  93 CALM      29.97R
$$

IAZ004>006-015-016-023>025-035-036-210700-
   NORTH CENTRAL IOWA

CITY           SKY/WX    TMP DP  RH WIND       PRES   REMARKS
ALGONA *       CLOUDY    75  75 100 SE6       29.97R
ESTHERVILLE    PTCLDY    71  71 100 NE6       29.96S
6HR MIN TEMP:  71; 6HR MAX TEMP:  81;

FORT DODGE *   CLOUDY    73  68  83 E6        29.96R
MASON CITY     CLOUDY    73  71  93 SE6       30.00R
6HR MIN TEMP:  72; 6HR MAX TEMP:  82;

FOREST CITY *    N/A     72  72 100 SE3       29.99R
WEBSTER CITY * CLOUDY    73  72  94 SE5       29.94R
IOWA FALLS *     N/A     73  71  93 SE6       30.00R
$$

IAZ007>011-017>019-026>030-037>042-050>054-066-210700-
   NORTHEAST IOWA

CITY           SKY/WX    TMP DP  RH WIND       PRES   REMARKS
CEDAR RAPIDS   TSTM      71  71 100 N12       30.00F FOG
6HR MIN TEMP:  70; 6HR MAX TEMP:  87; 6HR PCP:  0.88;

CHARLES CITY * CLOUDY    73  73 100 SE7       30.00S
CLINTON *      CLOUDY    71  70  96 W6        29.99R
DECORAH *      CLOUDY    70  68  94 SE5       30.00R
DUBUQUE        CLOUDY    73  70  90 SW6       30.03R
6HR MIN TEMP:  73; 6HR MAX TEMP:  84;

MONTICELLO *   CLOUDY    72  70  94 CALM      29.98F
OELWEIN *      CLOUDY    75  73  94 SE9       30.01R
WATERLOO       CLOUDY    77  71  82 E10       29.95S
6HR MIN TEMP:  76; 6HR MAX TEMP:  82;

$$

IAZ064-065-067-068-078-210700-
   EAST CENTRAL IOWA

CITY           SKY/WX    TMP DP  RH WIND       PRES   REMARKS
DAVENPORT      CLOUDY    70  68  93 NW6       30.00R
6HR MIN TEMP:  69; 6HR MAX TEMP:  87; 6HR PCP:  1.49;

IOWA CITY      TSTM      74  71  91 N15G22    30.03R
6HR MIN TEMP:  74; 6HR MAX TEMP:  93; 6HR PCP:  0.52;

MUSCATINE *    CLOUDY    73  72  94 CALM      29.96F
QUAD CITIES    LGT RAIN  74  71  91 NW5       29.97R
6HR MIN TEMP:  73; 6HR MAX TEMP:  92; 6HR PCP:  0.21;

$$

IAZ062-063-075>077-085>089-095>099-210700-
   SOUTHEAST IOWA

CITY           SKY/WX    TMP DP  RH WIND       PRES   REMARKS
BURLINGTON     CLOUDY    78  71  79 N5        29.96R HX  80
6HR MIN TEMP:  77; 6HR MAX TEMP:  92;

FAIRFIELD *    CLOUDY    77  70  78 N7G15     29.99R
FORT MADISON * CLOUDY    77  72  83 CALM      29.97S
KEOKUK *       CLOUDY    79  73  83 CALM      29.96R HX  82
OSKALOOSA *    RAIN      74  70  86 SE15      29.93F
OTTUMWA        TSTM      77  74  90 NE9       29.97R FOG
6HR MIN TEMP:  76; 6HR MAX TEMP:  96; 6HR PCP:  0.15;

WASHINGTON *   CLOUDY    77  70  78 N12G30    30.00R
$$

ABBREVIATIONS USED IN REMARKS
   TC - TEMPERATURES IN CELSIUS
  WCI - WIND CHILL INDEX
   HX - HEAT INDEX
  VSB - VISIBILITY
$$





USA.gov is the U.S. government's official web portal to all federal, state and local government web resources and services.